| time (UTC) | temp F | wind direction | speed knots | gust knots | rain 1hr in | rain 24hr in | rain mn in | humidity % | barometer mb |
| 20260903182004 | 79 | 146 | 11.3 | 20.9 | 0.00 | 0.06 | 0.01 | 81 | 1015.5 |
| 20260903181504 | 78 | 81 | 11.3 | 18.2 | 0.00 | 0.11 | 0.01 | 80 | 1015.6 |
| 20260903181004 | 78 | 88 | 8.7 | 18.2 | 0.00 | 0.15 | 0.01 | 81 | 1015.4 |
| 20260903180736 | 78 | 59 | 7.8 | 20.0 | 0.00 | 0.20 | 0.01 | 81 | 1015.4 |
| 20260903175951 | 78 | 92 | 14.8 | 20.0 | 0.00 | 0.26 | 0.01 | 80 | 1015.6 |
| 20260903175451 | 78 | 92 | 7.0 | 17.4 | 0.00 | 0.32 | 0.01 | 81 | 1015.5 |
| 20260903175222 | 77 | 87 | 8.7 | 17.4 | 0.00 | 0.41 | 0.01 | 82 | 1015.5 |
| 20260903174452 | 77 | 76 | 8.7 | 20.9 | 0.00 | 0.44 | 0.01 | 85 | 1015.5 |
| 20260903173952 | 76 | 68 | 6.1 | 20.9 | 0.00 | 0.45 | 0.01 | 85 | 1015.4 |
| 20260903173723 | 76 | 91 | 13.0 | 18.2 | 0.00 | 0.46 | 0.01 | 85 | 1015.7 |
| 20260903172951 | 77 | 98 | 9.6 | 18.2 | 0.00 | 0.47 | 0.01 | 85 | 1015.5 |
| 20260903172439 | 78 | 63 | 9.6 | 18.2 | 0.00 | 0.47 | 0.01 | 84 | 1015.5 |
| 20260903171939 | 77 | 77 | 7.8 | 16.5 | 0.00 | 0.47 | 0.01 | 83 | 1015.3 |
| 20260903171440 | 76 | 96 | 2.6 | 13.9 | 0.00 | 0.47 | 0.01 | 84 | 1015.4 |
| 20260903170940 | 76 | 135 | 4.3 | 13.9 | 0.01 | 0.47 | 0.01 | 85 | 1015.2 |
| 20260903170711 | 76 | 64 | 7.0 | 20.0 | 0.01 | 0.47 | 0.01 | 86 | 1015.3 |
| 20260903165940 | 76 | 128 | 10.4 | 20.0 | 0.01 | 0.47 | 0.01 | 86 | 1015.3 |
| 20260903165440 | 76 | 132 | 8.7 | 18.2 | 0.01 | 0.47 | 0.01 | 85 | 1015.0 |
| 20260903164928 | 76 | 112 | 3.5 | 17.4 | 0.01 | 0.47 | 0.01 | 85 | 1014.9 |
| 20260903164427 | 76 | 110 | 7.8 | 17.4 | 0.01 | 0.47 | 0.01 | 86 | 1014.9 |
| 20260903163927 | 75 | 116 | 11.3 | 14.8 | 0.01 | 0.47 | 0.01 | 87 | 1015.1 |
| 20260903163427 | 75 | 97 | 4.3 | 14.8 | 0.01 | 0.47 | 0.01 | 88 | 1014.9 |
| 20260903163159 | 75 | 93 | 6.1 | 13.0 | 0.01 | 0.47 | 0.01 | 88 | 1015.3 |
| 20260903162428 | 75 | 99 | 3.5 | 13.0 | 0.01 | 0.47 | 0.01 | 87 | 1015.2 |
| 20260903161928 | 76 | 126 | 5.2 | 14.8 | 0.01 | 0.47 | 0.01 | 86 | 1015.1 |
| 20260903161658 | 76 | 89 | 9.6 | 16.5 | 0.00 | 0.46 | 0.01 | 84 | 1015.1 |
| 20260903160927 | 77 | 115 | 4.3 | 16.5 | 0.00 | 0.46 | 0.00 | 83 | 1015.0 |
| 20260903160428 | 77 | 92 | 6.1 | 16.5 | 0.00 | 0.46 | 0.00 | 82 | 1014.9 |
| 20260903155927 | 77 | 124 | 10.4 | 14.8 | 0.00 | 0.46 | 0.00 | 82 | 1015.0 |
| 20260903155427 | 77 | 49 | 8.7 | 16.5 | 0.00 | 0.46 | 0.00 | 82 | 1015.0 |
| 20260903154928 | 77 | 89 | 11.3 | 16.5 | 0.00 | 0.46 | 0.00 | 81 | 1014.7 |
| 20260903154428 | 77 | 50 | 7.0 | 16.5 | 0.00 | 0.46 | 0.00 | 81 | 1014.5 |
| 20260903153928 | 77 | 135 | 8.7 | 16.5 | 0.00 | 0.46 | 0.00 | 82 | 1014.6 |
| 20260903153658 | 76 | 125 | 6.1 | 13.9 | 0.00 | 0.46 | 0.00 | 84 | 1014.8 |
| 20260903152928 | 76 | 74 | 7.8 | 18.2 | 0.00 | 0.47 | 0.00 | 85 | 1014.9 |
| 20260903152428 | 76 | 50 | 7.0 | 18.2 | 0.00 | 0.49 | 0.00 | 86 | 1015.0 |
| 20260903151928 | 76 | 86 | 9.6 | 20.9 | 0.00 | 0.50 | 0.00 | 86 | 1014.8 |
| 20260903151659 | 77 | 57 | 9.6 | 21.7 | 0.00 | 0.50 | 0.00 | 86 | 1014.9 |
| 20260903150929 | 77 | 69 | 12.2 | 21.7 | 0.00 | 0.50 | 0.00 | 84 | 1014.9 |
| 20260903150428 | 77 | 56 | 9.6 | 20.0 | 0.00 | 0.50 | 0.00 | 85 | 1014.6 |
| 20260903145927 | 76 | 68 | 8.7 | 17.4 | 0.00 | 0.50 | 0.00 | 85 | 1014.7 |
| 20260903145427 | 76 | 37 | 9.6 | 13.9 | 0.00 | 0.50 | 0.00 | 85 | 1014.7 |
| 20260903144928 | 76 | 77 | 6.1 | 21.7 | 0.00 | 0.50 | 0.00 | 84 | 1014.6 |
| 20260903144428 | 76 | 114 | 6.1 | 26.9 | 0.00 | 0.50 | 0.00 | 82 | 1015.0 |
| 20260903143928 | 77 | 76 | 9.6 | 26.9 | 0.00 | 0.49 | 0.00 | 82 | 1014.6 |
| 20260903143427 | 78 | 90 | 10.4 | 17.4 | 0.00 | 0.50 | 0.00 | 80 | 1014.8 |
| 20260903142928 | 78 | 70 | 9.6 | 20.0 | 0.00 | 0.50 | 0.00 | 80 | 1014.6 |
| 20260903142428 | 78 | 54 | 9.6 | 20.0 | 0.00 | 0.50 | 0.00 | 80 | 1014.5 |
| 20260903141929 | 78 | 94 | 7.8 | 16.5 | 0.00 | 0.50 | 0.00 | 81 | 1014.6 |
| 20260903141428 | 78 | 45 | 6.1 | 16.5 | 0.00 | 0.50 | 0.00 | 80 | 1014.4 |
| 20260903141201 | 78 | 71 | 5.2 | 16.5 | 0.00 | 0.51 | 0.00 | 81 | 1014.6 |
| 20260903140430 | 78 | 96 | 10.4 | 17.4 | 0.00 | 0.51 | 0.00 | 82 | 1014.5 |
| 20260903135928 | 78 | 85 | 11.3 | 17.4 | 0.00 | 0.51 | 0.00 | 82 | 1014.6 |
| 20260903135427 | 78 | 81 | 7.8 | 20.0 | 0.00 | 0.51 | 0.00 | 82 | 1014.4 |
| 20260903134929 | 78 | 59 | 13.0 | 17.4 | 0.00 | 0.51 | 0.00 | 82 | 1014.6 |
| 20260903134429 | 78 | 68 | 6.1 | 14.8 | 0.00 | 0.51 | 0.00 | 82 | 1014.6 |
| 20260903133928 | 78 | 93 | 7.0 | 20.0 | 0.00 | 0.51 | 0.00 | 82 | 1014.6 |
| 20260903133428 | 78 | 89 | 7.0 | 20.0 | 0.00 | 0.51 | 0.00 | 81 | 1014.4 |
| 20260903133158 | 78 | 126 | 9.6 | 17.4 | 0.00 | 0.51 | 0.00 | 80 | 1014.7 |
| 20260903132429 | 78 | 80 | 9.6 | 20.0 | 0.00 | 0.51 | 0.00 | 80 | 1014.6 |
| 20260903131928 | 78 | 85 | 11.3 | 20.0 | 0.00 | 0.51 | 0.00 | 80 | 1014.5 |
| 20260903131427 | 78 | 101 | 6.1 | 17.4 | 0.00 | 0.51 | 0.00 | 82 | 1014.4 |
| 20260903130927 | 78 | 87 | 10.4 | 17.4 | 0.00 | 0.51 | 0.00 | 81 | 1014.6 |
| 20260903130428 | 78 | 114 | 10.4 | 22.6 | 0.00 | 0.51 | 0.00 | 81 | 1014.7 |
| 20260903125928 | 78 | 66 | 6.1 | 22.6 | 0.00 | 0.51 | 0.00 | 82 | 1014.6 |
| 20260903125428 | 78 | 115 | 3.5 | 22.6 | 0.00 | 0.51 | 0.00 | 83 | 1014.5 |
| 20260903125159 | 78 | 126 | 8.7 | 22.6 | 0.00 | 0.51 | 0.00 | 82 | 1014.5 |
| 20260903124428 | 78 | 127 | 3.5 | 17.4 | 0.00 | 0.51 | 0.00 | 82 | 1014.6 |
| 20260903123929 | 78 | 92 | 10.4 | 17.4 | 0.00 | 0.51 | 0.00 | 82 | 1014.3 |
| 20260903123428 | 78 | 80 | 9.6 | 14.8 | 0.00 | 0.51 | 0.00 | 83 | 1014.4 |
| 20260903122927 | 78 | 93 | 7.0 | 17.4 | 0.00 | 0.51 | 0.00 | 83 | 1014.7 |
| 20260903122658 | 78 | 85 | 9.6 | 17.4 | 0.00 | 0.51 | 0.00 | 82 | 1014.5 |
| 20260903121927 | 78 | 105 | 10.4 | 16.5 | 0.00 | 0.51 | 0.00 | 80 | 1014.7 |
| 20260903121427 | 78 | 114 | 7.0 | 20.0 | 0.00 | 0.51 | 0.00 | 80 | 1014.7 |
| 20260903121158 | 78 | 95 | 7.0 | 20.0 | 0.00 | 0.51 | 0.00 | 81 | 1014.8 |
| 20260903120416 | 78 | 96 | 7.0 | 18.2 | 0.00 | 0.51 | 0.00 | 82 | 1014.9 |
| 20260903115916 | 78 | 86 | 7.0 | 20.0 | 0.00 | 0.51 | 0.00 | 82 | 1015.1 |
| 20260903115646 | 78 | 105 | 11.3 | 20.0 | 0.00 | 0.51 | 0.00 | 82 | 1014.9 |
| 20260903114916 | 78 | 87 | 7.0 | 17.4 | 0.00 | 0.51 | 0.00 | 82 | 1015.0 |
| 20260903114416 | 78 | 116 | 7.8 | 18.2 | 0.00 | 0.51 | 0.00 | 82 | 1014.8 |
| 20260903113915 | 78 | 61 | 8.7 | 18.2 | 0.00 | 0.51 | 0.00 | 81 | 1014.8 |
| 20260903113646 | 78 | 80 | 13.0 | 21.7 | 0.00 | 0.51 | 0.00 | 81 | 1014.7 |
| 20260903112915 | 78 | 125 | 12.2 | 21.7 | 0.00 | 0.51 | 0.00 | 81 | 1015.0 |
| 20260903112416 | 78 | 95 | 7.0 | 16.5 | 0.00 | 0.51 | 0.00 | 81 | 1015.2 |
| 20260903111916 | 78 | 43 | 7.0 | 20.0 | 0.00 | 0.51 | 0.00 | 82 | 1015.2 |
| 20260903111416 | 78 | 94 | 9.6 | 21.7 | 0.00 | 0.51 | 0.00 | 82 | 1015.1 |
| 20260903110916 | 78 | 93 | 13.9 | 21.7 | 0.00 | 0.51 | 0.00 | 81 | 1015.2 |
| 20260903110415 | 78 | 77 | 8.7 | 20.0 | 0.00 | 0.51 | 0.00 | 82 | 1015.2 |
| 20260903105915 | 78 | 107 | 13.0 | 20.0 | 0.00 | 0.51 | 0.00 | 81 | 1015.3 |
| 20260903105647 | 78 | 139 | 10.4 | 20.0 | 0.00 | 0.51 | 0.00 | 81 | 1015.4 |
| 20260903104916 | 78 | 90 | 7.8 | 20.9 | 0.00 | 0.51 | 0.00 | 81 | 1015.3 |
| 20260903104416 | 77 | 119 | 11.3 | 20.9 | 0.00 | 0.51 | 0.00 | 81 | 1015.5 |
| 20260903103916 | 77 | 108 | 7.8 | 18.2 | 0.00 | 0.51 | 0.00 | 83 | 1015.3 |
| 20260903103416 | 77 | 122 | 7.0 | 18.2 | 0.00 | 0.51 | 0.00 | 84 | 1015.7 |
| 20260903103147 | 77 | 129 | 5.2 | 17.4 | 0.00 | 0.51 | 0.00 | 83 | 1015.5 |
| 20260903102415 | 77 | 106 | 7.0 | 14.8 | 0.00 | 0.51 | 0.00 | 83 | 1015.2 |
| 20260903101915 | 77 | 114 | 5.2 | 17.4 | 0.00 | 0.51 | 0.00 | 82 | 1015.6 |
| 20260903101416 | 78 | 111 | 8.7 | 20.9 | 0.00 | 0.51 | 0.00 | 82 | 1015.4 |
| 20260903100915 | 78 | 83 | 13.0 | 20.9 | 0.00 | 0.51 | 0.00 | 82 | 1015.7 |
| 20260903100416 | 78 | 106 | 5.2 | 18.2 | 0.00 | 0.51 | 0.00 | 82 | 1015.8 |
| 20260903100146 | 78 | 121 | 10.4 | 16.5 | 0.00 | 0.51 | 0.51 | 82 | 1015.7 |
| 20260903095415 | 78 | 108 | 4.3 | 20.9 | 0.00 | 0.51 | 0.51 | 81 | 1015.6 |
| 20260903094916 | 78 | 69 | 9.6 | 20.9 | 0.00 | 0.51 | 0.51 | 80 | 1015.5 |
| 20260903094416 | 78 | 62 | 7.8 | 17.4 | 0.00 | 0.51 | 0.51 | 79 | 1015.7 |
| 20260903093915 | 78 | 119 | 6.1 | 17.4 | 0.00 | 0.51 | 0.51 | 81 | 1015.5 |
| 20260903093647 | 78 | 93 | 6.1 | 20.0 | 0.00 | 0.51 | 0.51 | 81 | 1015.8 |
| 20260903092916 | 78 | 75 | 13.0 | 20.0 | 0.00 | 0.51 | 0.51 | 82 | 1015.9 |
| 20260903092415 | 78 | 86 | 7.8 | 17.4 | 0.00 | 0.51 | 0.51 | 81 | 1016.0 |
| 20260903091916 | 78 | 94 | 9.6 | 20.0 | 0.00 | 0.51 | 0.51 | 81 | 1015.7 |
| 20260903091646 | 78 | 109 | 10.4 | 25.2 | 0.00 | 0.51 | 0.51 | 81 | 1016.2 |
| 20260903090915 | 78 | 99 | 5.2 | 25.2 | 0.00 | 0.51 | 0.51 | 81 | 1016.1 |
| 20260903090416 | 78 | 112 | 7.0 | 20.9 | 0.00 | 0.51 | 0.51 | 80 | 1016.3 |
| 20260903085915 | 78 | 105 | 10.4 | 21.7 | 0.00 | 0.51 | 0.51 | 81 | 1016.4 |
| 20260903085415 | 78 | 111 | 10.4 | 21.7 | 0.00 | 0.51 | 0.51 | 81 | 1016.3 |
| 20260903084915 | 78 | 112 | 11.3 | 18.2 | 0.00 | 0.51 | 0.51 | 81 | 1016.4 |
| 20260903084415 | 78 | 108 | 7.0 | 21.7 | 0.00 | 0.51 | 0.51 | 80 | 1016.3 |
| 20260903083921 | 78 | 129 | 5.2 | 13.9 | 0.00 | 0.51 | 0.51 | 81 | 1016.1 |
| 20260903083915 | 78 | 61 | 10.4 | 21.7 | 0.00 | 0.51 | 0.51 | 80 | 1016.3 |
| 20260903082916 | 78 | 123 | 7.0 | 21.7 | 0.00 | 0.51 | 0.51 | 81 | 1016.3 |
| 20260903082418 | 78 | 84 | 8.7 | 18.2 | 0.00 | 0.51 | 0.51 | 80 | 1016.1 |
| 20260903081915 | 78 | 114 | 7.8 | 20.9 | 0.00 | 0.51 | 0.51 | 81 | 1016.1 |
| 20260903081416 | 78 | 70 | 12.2 | 17.4 | 0.00 | 0.51 | 0.51 | 81 | 1016.6 |
| 20260903080916 | 78 | 105 | 9.6 | 17.4 | 0.00 | 0.51 | 0.51 | 82 | 1016.2 |
| 20260903080415 | 78 | 71 | 7.8 | 17.4 | 0.00 | 0.51 | 0.51 | 81 | 1016.2 |
| 20260903075916 | 78 | 93 | 7.8 | 21.7 | 0.00 | 0.51 | 0.51 | 81 | 1016.1 |
| 20260903075416 | 78 | 69 | 7.8 | 21.7 | 0.00 | 0.51 | 0.51 | 82 | 1016.1 |
| 20260903074918 | 78 | 86 | 7.8 | 20.0 | 0.00 | 0.51 | 0.51 | 82 | 1016.1 |
| 20260903074415 | 78 | 108 | 3.5 | 20.0 | 0.00 | 0.51 | 0.51 | 82 | 1016.0 |
| 20260903074144 | 79 | 98 | 7.0 | 18.2 | 0.00 | 0.51 | 0.51 | 82 | 1016.2 |
| 20260903073411 | 79 | 115 | 10.4 | 18.2 | 0.00 | 0.51 | 0.51 | 81 | 1015.9 |
| 20260903072907 | 79 | 131 | 6.1 | 18.2 | 0.00 | 0.51 | 0.51 | 81 | 1016.2 |
| 20260903072407 | 79 | 103 | 7.8 | 20.0 | 0.00 | 0.51 | 0.51 | 81 | 1016.2 |
| 20260903071907 | 79 | 95 | 9.6 | 20.0 | 0.00 | 0.51 | 0.51 | 81 | 1016.1 |
| 20260903071405 | 79 | 105 | 10.4 | 22.6 | 0.00 | 0.51 | 0.51 | 81 | 1016.0 |
| 20260903070905 | 79 | 96 | 9.6 | 22.6 | 0.00 | 0.51 | 0.51 | 80 | 1015.9 |
| 20260903070632 | 79 | 80 | 9.6 | 16.5 | 0.00 | 0.51 | 0.51 | 79 | 1015.8 |
| 20260903065900 | 79 | 89 | 8.7 | 14.8 | 0.00 | 0.51 | 0.51 | 80 | 1015.9 |
| 20260903065400 | 79 | 80 | 9.6 | 18.2 | 0.00 | 0.51 | 0.51 | 79 | 1015.7 |
| 20260903064859 | 79 | 114 | 6.1 | 18.2 | 0.00 | 0.51 | 0.51 | 79 | 1015.8 |
| 20260903064356 | 79 | 65 | 7.8 | 17.4 | 0.00 | 0.51 | 0.51 | 80 | 1016.0 |
| 20260903063856 | 79 | 103 | 7.8 | 17.4 | 0.00 | 0.51 | 0.51 | 80 | 1015.8 |
| 20260903063354 | 79 | 82 | 9.6 | 20.0 | 0.00 | 0.51 | 0.51 | 79 | 1015.7 |
| 20260903062851 | 79 | 116 | 7.8 | 20.0 | 0.00 | 0.51 | 0.51 | 79 | 1015.8 |
| 20260903062352 | 79 | 100 | 9.6 | 17.4 | 0.00 | 0.51 | 0.51 | 79 | 1015.6 |
| 20260903061849 | 79 | 60 | 8.7 | 21.7 | 0.00 | 0.51 | 0.51 | 79 | 1015.4 |
| 20260903061619 | 79 | 111 | 6.1 | 21.7 | 0.00 | 0.51 | 0.51 | 79 | 1015.6 |
| 20260903060848 | 79 | 84 | 8.7 | 17.4 | 0.00 | 0.51 | 0.51 | 79 | 1015.4 |
| 20260903060618 | 79 | 69 | 9.6 | 18.2 | 0.00 | 0.51 | 0.51 | 79 | 1015.5 |
| 20260903055850 | 79 | 115 | 7.8 | 21.7 | 0.00 | 0.51 | 0.51 | 79 | 1015.3 |
| 20260903055623 | 79 | 140 | 8.7 | 13.9 | 0.00 | 0.51 | 0.51 | 79 | 1015.6 |
| 20260903055346 | 79 | 122 | 4.3 | 21.7 | 0.00 | 0.51 | 0.51 | 79 | 1015.3 |
| 20260903054615 | 79 | 130 | 8.7 | 17.4 | 0.00 | 0.51 | 0.51 | 79 | 1015.5 |
| 20260903053844 | 79 | 96 | 11.3 | 17.4 | 0.00 | 0.51 | 0.51 | 79 | 1015.3 |
| 20260903053344 | 79 | 96 | 6.1 | 16.5 | 0.00 | 0.51 | 0.51 | 79 | 1015.3 |
| 20260903052831 | 79 | 111 | 8.7 | 17.4 | 0.00 | 0.51 | 0.51 | 79 | 1015.1 |
| 20260903052331 | 79 | 88 | 12.2 | 18.2 | 0.00 | 0.51 | 0.51 | 79 | 1015.1 |
| 20260903052103 | 79 | 106 | 12.2 | 18.2 | 0.00 | 0.51 | 0.51 | 79 | 1014.9 |
| 20260903051331 | 79 | 122 | 7.8 | 14.8 | 0.00 | 0.51 | 0.51 | 80 | 1014.9 |
| 20260903050831 | 79 | 117 | 5.2 | 14.8 | 0.00 | 0.51 | 0.51 | 81 | 1014.7 |
| 20260903050336 | 79 | 82 | 2.6 | 16.5 | 0.00 | 0.51 | 0.51 | 80 | 1014.6 |
| 20260903050330 | 79 | 115 | 9.6 | 14.8 | 0.00 | 0.51 | 0.51 | 81 | 1014.6 |
| 20260903045331 | 79 | 84 | 7.8 | 16.5 | 0.00 | 0.51 | 0.51 | 80 | 1014.6 |
| 20260903044831 | 79 | 127 | 7.0 | 16.5 | 0.00 | 0.51 | 0.51 | 79 | 1014.4 |
| 20260903044331 | 80 | 51 | 5.2 | 16.5 | 0.00 | 0.51 | 0.51 | 79 | 1014.7 |
| 20260903043831 | 80 | 94 | 6.1 | 14.8 | 0.00 | 0.51 | 0.51 | 78 | 1014.6 |
| 20260903043331 | 80 | 111 | 6.1 | 14.8 | 0.00 | 0.51 | 0.51 | 78 | 1014.6 |
| 20260903042831 | 80 | 106 | 3.5 | 14.8 | 0.00 | 0.51 | 0.51 | 78 | 1014.4 |
| 20260903042331 | 80 | 87 | 7.8 | 14.8 | 0.00 | 0.51 | 0.51 | 77 | 1014.2 |
| 20260903042108 | 80 | 105 | 7.8 | 14.8 | 0.00 | 0.51 | 0.51 | 77 | 1014.5 |
| 20260903041831 | 80 | 143 | 7.8 | 14.8 | 0.00 | 0.51 | 0.51 | 77 | 1014.4 |
| 20260903040832 | 80 | 114 | 7.8 | 17.4 | 0.00 | 0.51 | 0.51 | 78 | 1014.4 |
| 20260903040331 | 80 | 115 | 3.5 | 20.0 | 0.00 | 0.51 | 0.51 | 77 | 1014.3 |
| 20260903035830 | 80 | 105 | 5.2 | 20.0 | 0.00 | 0.51 | 0.51 | 77 | 1014.6 |
| 20260903035330 | 81 | 117 | 9.6 | 16.5 | 0.00 | 0.51 | 0.51 | 77 | 1014.4 |
| 20260903034830 | 81 | 105 | 7.8 | 16.5 | 0.00 | 0.51 | 0.51 | 76 | 1014.3 |
| 20260903034330 | 81 | 129 | 9.6 | 17.4 | 0.00 | 0.51 | 0.51 | 75 | 1014.1 |
| 20260903033832 | 81 | 44 | 7.0 | 18.2 | 0.00 | 0.51 | 0.51 | 75 | 1014.2 |
| 20260903033549 | 81 | 80 | 9.6 | 18.2 | 0.00 | 0.51 | 0.51 | 75 | 1013.8 |
| 20260903032818 | 81 | 90 | 10.4 | 16.5 | 0.00 | 0.51 | 0.51 | 76 | 1014.0 |
| 20260903032318 | 81 | 65 | 8.7 | 16.5 | 0.00 | 0.51 | 0.51 | 76 | 1014.1 |
| 20260903031818 | 81 | 65 | 6.1 | 16.5 | 0.00 | 0.51 | 0.51 | 77 | 1013.9 |
| 20260903031319 | 82 | 93 | 9.6 | 17.4 | 0.00 | 0.51 | 0.51 | 76 | 1014.1 |
| 20260903030819 | 82 | 86 | 9.6 | 17.4 | 0.00 | 0.51 | 0.51 | 75 | 1014.1 |
| 20260903030319 | 82 | 124 | 5.2 | 14.8 | 0.00 | 0.51 | 0.51 | 75 | 1014.1 |
| 20260903025819 | 82 | 92 | 3.5 | 14.8 | 0.00 | 0.51 | 0.51 | 73 | 1014.0 |
| 20260903025318 | 82 | 102 | 7.0 | 14.8 | 0.00 | 0.51 | 0.51 | 74 | 1013.9 |
| 20260903024818 | 82 | 110 | 8.7 | 16.5 | 0.00 | 0.51 | 0.51 | 73 | 1013.8 |
| 20260903024318 | 82 | 87 | 8.7 | 17.4 | 0.00 | 0.51 | 0.51 | 73 | 1014.0 |
| 20260903023818 | 83 | 117 | 9.6 | 17.4 | 0.00 | 0.51 | 0.51 | 73 | 1014.2 |
| 20260903023319 | 82 | 104 | 3.5 | 13.9 | 0.00 | 0.51 | 0.51 | 75 | 1014.0 |
| 20260903022819 | 82 | 90 | 6.1 | 17.4 | 0.00 | 0.51 | 0.51 | 75 | 1014.2 |
| 20260903022318 | 82 | 75 | 11.3 | 17.4 | 0.00 | 0.51 | 0.51 | 76 | 1014.1 |
| 20260903022050 | 83 | 91 | 10.4 | 14.8 | 0.00 | 0.51 | 0.51 | 75 | 1014.0 |
| 20260903021319 | 82 | 83 | 3.5 | 14.8 | 0.00 | 0.51 | 0.51 | 76 | 1014.1 |
| 20260903020819 | 82 | 119 | 7.8 | 16.5 | 0.00 | 0.51 | 0.51 | 76 | 1013.7 |
| 20260903020318 | 83 | 106 | 7.0 | 18.2 | 0.00 | 0.51 | 0.51 | 75 | 1014.1 |
| 20260903015818 | 83 | 76 | 7.8 | 18.2 | 0.00 | 0.51 | 0.51 | 75 | 1013.9 |
| 20260903015318 | 83 | 92 | 7.8 | 14.8 | 0.00 | 0.51 | 0.51 | 74 | 1014.2 |
| 20260903014819 | 83 | 115 | 7.8 | 13.0 | 0.00 | 0.51 | 0.51 | 74 | 1014.0 |
| 20260903014319 | 83 | 111 | 5.2 | 13.9 | 0.00 | 0.51 | 0.51 | 74 | 1014.0 |
| 20260903013819 | 83 | 90 | 9.6 | 16.5 | 0.00 | 0.51 | 0.51 | 74 | 1014.2 |
| 20260903013319 | 83 | 102 | 5.2 | 16.5 | 0.00 | 0.51 | 0.51 | 74 | 1013.9 |
| 20260903012818 | 83 | 71 | 7.8 | 14.8 | 0.00 | 0.51 | 0.51 | 73 | 1014.0 |
| 20260903012319 | 83 | 104 | 10.4 | 13.9 | 0.00 | 0.51 | 0.51 | 74 | 1013.7 |
| 20260903011818 | 84 | 111 | 4.3 | 17.4 | 0.00 | 0.51 | 0.51 | 72 | 1013.9 |
| 20260903011318 | 84 | 110 | 5.2 | 17.4 | 0.00 | 0.51 | 0.51 | 73 | 1013.8 |
| 20260903010820 | 84 | 105 | 7.8 | 16.5 | 0.00 | 0.51 | 0.51 | 73 | 1014.1 |
| 20260903010319 | 84 | 90 | 7.8 | 14.8 | 0.00 | 0.51 | 0.51 | 74 | 1014.1 |
| 20260903005818 | 84 | 64 | 6.1 | 17.4 | 0.00 | 0.51 | 0.51 | 73 | 1014.0 |
| 20260903005319 | 84 | 113 | 13.0 | 17.4 | 0.00 | 0.51 | 0.51 | 73 | 1014.1 |
| 20260903004818 | 84 | 103 | 9.6 | 17.4 | 0.00 | 0.51 | 0.51 | 73 | 1014.1 |
| 20260903004319 | 84 | 67 | 9.6 | 17.4 | 0.00 | 0.51 | 0.51 | 74 | 1014.0 |
| 20260903004050 | 84 | 101 | 11.3 | 16.5 | 0.00 | 0.51 | 0.51 | 74 | 1013.9 |
| 20260903003318 | 84 | 102 | 4.3 | 17.4 | 0.00 | 0.51 | 0.51 | 75 | 1013.9 |
| 20260903003049 | 83 | 87 | 9.6 | 17.4 | 0.00 | 0.51 | 0.51 | 74 | 1014.1 |
| 20260903002321 | 84 | 75 | 5.2 | 18.2 | 0.00 | 0.51 | 0.51 | 75 | 1014.0 |
| 20260903001819 | 84 | 77 | 11.3 | 18.2 | 0.00 | 0.51 | 0.51 | 75 | 1014.3 |
| 20260903001319 | 84 | 51 | 6.1 | 16.5 | 0.00 | 0.51 | 0.51 | 76 | 1014.1 |
| 20260903001049 | 83 | 103 | 6.1 | 18.2 | 0.00 | 0.51 | 0.51 | 76 | 1014.2 |
| 20260903000318 | 83 | 70 | 8.7 | 18.2 | 0.00 | 0.51 | 0.51 | 77 | 1014.3 |
| 20260902235817 | 83 | 81 | 8.7 | 18.2 | 0.00 | 0.51 | 0.51 | 77 | 1014.4 |
| 20260902235319 | 83 | 51 | 7.8 | 18.2 | 0.00 | 0.51 | 0.51 | 76 | 1014.6 |
| 20260902234817 | 83 | 78 | 10.4 | 18.2 | 0.00 | 0.51 | 0.51 | 76 | 1014.5 |
| 20260902234317 | 84 | 72 | 5.2 | 16.5 | 0.00 | 0.51 | 0.51 | 77 | 1014.5 |